Olathe, KS

6:54 AM CST on January 24, 2018 (GMT -0600)
Johnson County Executive

Weather History for KOJC - August, 2013

Change the Weather History Date:

Friday, August 2, 2013

  Actual Average Record
Temperature  
Mean Temperature 77 °F 79 °F  
Max Temperature 87 °F 89 °F 110 °F (2011)
Min Temperature 67 °F 70 °F 57 °F (1949)
Degree Days  
Heating Degree Days 0 0  
Month to date heating degree days 0 0  
Since 1 June heating degree days 14 8  
Since 1 July heating degree days 0 0  
Cooling Degree Days 12 14  
Month to date cooling degree days 23 28  
Year to date cooling degree days 793 800  
Since 1 June cooling degree days 692 696  
Growing Degree Days 26 (Base 50)    
Moisture  
Dew Point 69 °F    
Average Humidity 77    
Maximum Humidity 93    
Minimum Humidity 61    
Precipitation  
Precipitation 0.42 in 0.08 in 2.99 in (1939)
Month to date precipitation 0.42 0.16  
Year to date precipitation 24.25 24.40  
Sea Level Pressure  
Sea Level Pressure 29.90 in    
Wind  
Wind Speed 7 mph (East)    
Max Wind Speed 15 mph    
Max Gust Speed 21 mph    
Visibility 8 miles    
Events Rain , Thunderstorm    
T = Trace of Precipitation, MM = Missing Value Source: NWS Daily Summary

Daily Weather History Graph

Daily Weather History Graph

Search for Another Location

Airport or City:

Trip Planner

Search our weather history database for the weather conditions in past years. The results will help you decide how hot, cold, wet, or windy it might be!

Date:

Astronomy

Aug. 02, 2013 Rise Set
Actual Time 6:21 AM CDT 8:28 PM CDT
Civil Twilight 5:51 AM CDT 8:58 PM CDT
Nautical Twilight 5:15 AM CDT 9:34 PM CDT
Astronomical Twilight 4:36 AM CDT 10:13 PM CDT
Moon 2:43 AM CDT (8/2) 5:26 PM CDT (8/2)
Length of Visible Light 15h 06m
Length of Day
14h 07m
Waning Crescent, 15% of the Moon is Illuminated
Aug 2
Waning Crescent
Aug 6
New
Aug 14
First Quarter
Aug 20
Full
Aug 28
Last Quarter

Hourly Weather History & Observations

Time (CDT) Temp. Heat Index Dew Point Humidity Pressure Visibility Wind Dir Wind Speed Gust Speed Precip Events Conditions
12:53 AM 75.0 °F - 66.0 °F 73% 29.96 in 10.0 mi East 3.5 mph - N/A   Mostly Cloudy
1:53 AM 75.9 °F - 66.9 °F 74% 29.96 in 10.0 mi NNW 3.5 mph - 0.00 in   Overcast
2:53 AM 73.9 °F - 68.0 °F 82% 29.95 in 10.0 mi NNW 5.8 mph - N/A   Partly Cloudy
3:53 AM 71.1 °F - 66.9 °F 87% 29.96 in 10.0 mi North 8.1 mph - 0.01 in Rain Light Rain
4:38 AM 69.8 °F - 66.2 °F 88% 29.98 in 7.0 mi NNE 6.9 mph - 0.04 in Rain , Thunderstorm Light Thunderstorms and Rain
4:53 AM 69.1 °F - 66.9 °F 93% 29.94 in 7.0 mi NE 8.1 mph - 0.05 in Rain , Thunderstorm Light Rain
5:37 AM 68.0 °F - 66.2 °F 94% 29.99 in 5.0 mi NNE 5.8 mph - 0.14 in Rain Light Rain
5:53 AM 68.0 °F - 66.0 °F 93% 29.96 in 7.0 mi ENE 4.6 mph - 0.16 in Rain Light Rain
6:53 AM 66.9 °F - 64.9 °F 93% 29.91 in 3.0 mi ESE 5.8 mph - 0.14 in Rain Light Rain
6:57 AM 66.2 °F - 64.4 °F 94% 29.93 in 2.0 mi ESE 8.1 mph - 0.03 in Rain Rain
7:00 AM 66.2 °F - 64.4 °F 94% 29.91 in 3.0 mi ESE 10.4 mph - 0.04 in Rain Heavy Rain
7:53 AM 68.0 °F - 66.9 °F 96% 29.88 in 6.0 mi SE 8.1 mph - 0.06 in Rain Light Rain
8:05 AM 69.8 °F - 66.2 °F 88% 29.91 in 6.0 mi ESE 5.8 mph - 0.00 in   Overcast
8:20 AM 69.8 °F - 68.0 °F 94% 29.90 in 6.0 mi SSE 9.2 mph - 0.00 in   Overcast
8:31 AM 69.8 °F - 68.0 °F 94% 29.90 in 7.0 mi SE 8.1 mph - 0.00 in   Overcast
8:53 AM 71.1 °F - 69.1 °F 93% 29.87 in 7.0 mi SE 4.6 mph - 0.00 in   Overcast
9:53 AM 73.0 °F - 69.1 °F 87% 29.86 in 10.0 mi South 8.1 mph - N/A   Mostly Cloudy
10:53 AM 73.9 °F - 69.1 °F 85% 29.87 in 10.0 mi SSW 8.1 mph - N/A   Overcast
11:36 AM 77.0 °F - 71.6 °F 83% 29.91 in 10.0 mi SSW 9.2 mph - N/A   Overcast
11:53 AM 79.0 °F - 72.0 °F 79% 29.87 in 10.0 mi Variable 5.8 mph - N/A   Overcast
12:53 PM 80.1 °F 83.6 °F 71.1 °F 74% 29.87 in 9.0 mi SW 11.5 mph 20.7 mph N/A   Overcast
1:08 PM 82.4 °F 87.2 °F 71.6 °F 70% 29.90 in 10.0 mi SW 11.5 mph 20.7 mph N/A   Overcast
1:53 PM 82.0 °F 85.9 °F 70.0 °F 67% 29.86 in 10.0 mi WSW 5.8 mph - N/A   Scattered Clouds
2:53 PM 84.9 °F 90.1 °F 71.1 °F 63% 29.85 in 10.0 mi West 8.1 mph - N/A   Clear
3:53 PM 86.0 °F 91.5 °F 71.1 °F 61% 29.83 in 10.0 mi Variable 6.9 mph - N/A   Scattered Clouds
4:53 PM 87.1 °F 94.5 °F 73.0 °F 63% 29.83 in 10.0 mi ENE 5.8 mph - N/A   Overcast
5:53 PM 82.0 °F 87.4 °F 73.0 °F 74% 29.85 in 10.0 mi ENE 9.2 mph - N/A   Mostly Cloudy
6:53 PM 81.0 °F 85.2 °F 72.0 °F 74% 29.87 in 10.0 mi ENE 8.1 mph - N/A   Clear
7:53 PM 80.1 °F 83.6 °F 71.1 °F 74% 29.88 in 10.0 mi ENE 6.9 mph - N/A   Mostly Cloudy
8:53 PM 78.1 °F - 70.0 °F 76% 29.88 in 10.0 mi East 5.8 mph - N/A   Partly Cloudy
9:53 PM 77.0 °F - 70.0 °F 79% 29.88 in 10.0 mi East 5.8 mph - N/A   Clear
10:53 PM 75.9 °F - 70.0 °F 82% 29.89 in 10.0 mi East 4.6 mph - N/A   Mostly Cloudy
11:53 PM 75.9 °F - 71.1 °F 85% 29.90 in 10.0 mi East 5.8 mph - N/A   Overcast